Location: Pulvis Stellarum Observatory
(41.6962°N, 71.4263°W)
Time: 16:10:21
(UTC-04:00)

Cosmos 1758 - Visible Passes

Search period start: 28 May 2015 00:00
Search period end: 07 June 2015 00:00
Orbit: 544 x 570 km, 82.5° (Epoch: 27 May)

Date Brightness Start Highest point End Pass type
(mag) Time Alt. Az. Time Alt. Az. Time Alt. Az.
28 May 5.9 00:03:56 10° WNW 00:05:26 12° W 00:05:33 12° W visible
28 May 3.4 22:23:20 10° N 22:27:17 58° E 22:27:55 51° ESE visible
29 May 3.3 22:21:21 10° N 22:25:20 69° E 22:26:12 51° SE visible
30 May 3.2 22:19:22 10° N 22:23:23 82° E 22:24:28 47° SSE visible
31 May 3.2 22:17:24 10° N 22:21:25 85° W 22:22:46 41° S visible
01 Jun 3.4 22:15:27 10° NNW 22:19:27 72° W 22:21:05 34° S visible
02 Jun 3.7 22:13:31 10° NNW 22:17:28 60° W 22:19:25 28° SSW visible
03 Jun 4.0 22:11:35 10° NNW 22:15:29 51° W 22:17:47 22° SSW visible
04 Jun 4.3 22:09:41 10° NNW 22:13:30 43° W 22:16:09 18° SSW visible
05 Jun 4.6 22:07:47 10° NNW 22:11:30 36° W 22:14:33 14° SSW visible
06 Jun 4.9 22:05:55 10° NNW 22:09:30 31° W 22:12:59 10° SSW visible
